Presque Isle, ME

8:21 AM EDT on April 27, 2017 (GMT -0400)
Northern Maine Regional At Presque Isle

Weather History for KPQI - October, 2011

Change the Weather History Date:

Sunday, October 9, 2011

  Actual Average Record
Temperature  
Mean Temperature 70 °F -  
Max Temperature 80 °F 53 °F 80 °F (2011)
Min Temperature 60 °F 36 °F 20 °F (1937)
Cooling Degree Days 5    
Growing Degree Days 20 (Base 50)    
Moisture  
Dew Point 50 °F    
Average Humidity 50    
Maximum Humidity 63    
Minimum Humidity 30    
Precipitation  
Precipitation 0.00 in - - ()
Sea Level Pressure  
Sea Level Pressure 30.06 in    
Wind  
Wind Speed 8 mph (WSW)    
Max Wind Speed 15 mph    
Max Gust Speed 22 mph    
Visibility 10 miles    
Events      
Averages and records for this station are not official NWS values.
T = Trace of Precipitation, MM = Missing Value Source: NWS Daily Summary

Daily Weather History Graph

Daily Weather History Graph

Search for Another Location

Airport or City:

Trip Planner

Search our weather history database for the weather conditions in past years. The results will help you decide how hot, cold, wet, or windy it might be!

Date:

Astronomy

Oct. 09, 2011 Rise Set
Actual Time 6:41 AM EDT 5:57 PM EDT
Civil Twilight 6:10 AM EDT 6:27 PM EDT
Nautical Twilight 5:35 AM EDT 7:02 PM EDT
Astronomical Twilight 5:00 AM EDT 7:37 PM EDT
Moon 4:36 PM EDT (10/9) 4:16 AM EDT (10/9)
Length of Visible Light 12h 16m
Length of Day
11h 15m
Waxing Gibbous, 95% of the Moon is Illuminated
Oct 9
Waxing Gibbous
Oct 11
Full
Oct 19
Last Quarter
Oct 26
New
Nov 2
First Quarter

Hourly Weather History & Observations

Time (EDT) Temp. Heat Index Dew Point Humidity Pressure Visibility Wind Dir Wind Speed Gust Speed Precip Events Conditions
12:15 AM 64.4 °F - 50.0 °F 59% 30.08 in 10.0 mi WSW 8.1 mph - N/A   Clear
12:35 AM 62.6 °F - 50.0 °F 63% 30.08 in 10.0 mi SW 6.9 mph - N/A   Clear
12:55 AM 62.6 °F - 48.2 °F 59% 30.07 in 10.0 mi SSW 5.8 mph - N/A   Clear
1:15 AM 62.6 °F - 48.2 °F 59% 30.08 in 10.0 mi SW 5.8 mph - N/A   Clear
1:35 AM 62.6 °F - 48.2 °F 59% 30.07 in 10.0 mi SW 5.8 mph - N/A   Clear
1:55 AM 62.6 °F - 48.2 °F 59% 30.08 in 10.0 mi SW 6.9 mph - N/A   Clear
2:15 AM 62.6 °F - 48.2 °F 59% 30.07 in 10.0 mi WSW 6.9 mph - N/A   Clear
2:35 AM 62.6 °F - 48.2 °F 59% 30.07 in 10.0 mi SW 9.2 mph - N/A   Clear
2:55 AM 62.6 °F - 48.2 °F 59% 30.06 in 10.0 mi SW 8.1 mph - N/A   Clear
3:15 AM 60.8 °F - 48.2 °F 63% 30.06 in 10.0 mi SW 9.2 mph - N/A   Clear
3:35 AM 62.6 °F - 48.2 °F 59% 30.06 in 10.0 mi SW 6.9 mph - N/A   Clear
3:55 AM 60.8 °F - 48.2 °F 63% 30.06 in 10.0 mi SW 6.9 mph - N/A   Clear
4:15 AM 62.6 °F - 48.2 °F 59% 30.07 in 10.0 mi SSW 5.8 mph - N/A   Clear
4:35 AM 62.6 °F - 48.2 °F 59% 30.07 in 10.0 mi SSW 4.6 mph - N/A   Clear
4:55 AM 60.8 °F - 48.2 °F 63% 30.07 in 10.0 mi SW 4.6 mph - N/A   Clear
5:15 AM 60.8 °F - 48.2 °F 63% 30.07 in 10.0 mi WSW 8.1 mph - N/A   Clear
5:35 AM 62.6 °F - 48.2 °F 59% 30.08 in 10.0 mi WSW 8.1 mph - N/A   Clear
5:55 AM 62.6 °F - 48.2 °F 59% 30.08 in 10.0 mi SW 6.9 mph - N/A   Clear
6:15 AM 62.6 °F - 48.2 °F 59% 30.08 in 10.0 mi SW 8.1 mph - N/A   Clear
6:35 AM 62.6 °F - 48.2 °F 59% 30.08 in 10.0 mi SSW 5.8 mph - N/A   Clear
6:55 AM 62.6 °F - 48.2 °F 59% 30.07 in 10.0 mi SSW 5.8 mph - N/A   Clear
7:15 AM 62.6 °F - 48.2 °F 59% 30.08 in 10.0 mi SSW 5.8 mph - N/A   Clear
7:35 AM 62.6 °F - 48.2 °F 59% 30.09 in 10.0 mi SSW 5.8 mph - N/A   Clear
7:55 AM 62.6 °F - 48.2 °F 59% 30.09 in 10.0 mi WSW 8.1 mph - N/A   Clear
8:15 AM 64.4 °F - 48.2 °F 56% 30.09 in 10.0 mi SW 9.2 mph - N/A   Clear
8:35 AM 64.4 °F - 48.2 °F 56% 30.09 in 10.0 mi WSW 5.8 mph - N/A   Clear
8:55 AM 66.2 °F - 48.2 °F 52% 30.10 in 10.0 mi West 11.5 mph 16.1 mph N/A   Clear
9:15 AM 69.8 °F - 48.2 °F 46% 30.10 in 10.0 mi West 13.8 mph 20.7 mph N/A   Clear
9:35 AM 69.8 °F - 50.0 °F 49% 30.10 in 10.0 mi West 11.5 mph 20.7 mph N/A   Clear
9:55 AM 71.6 °F - 50.0 °F 46% 30.10 in 10.0 mi West 13.8 mph 17.3 mph N/A   Clear
10:15 AM 71.6 °F - 51.8 °F 50% 30.09 in 10.0 mi West 13.8 mph 19.6 mph N/A   Clear
10:35 AM 73.4 °F - 51.8 °F 47% 30.09 in 10.0 mi West 13.8 mph 18.4 mph N/A   Clear
10:55 AM 73.4 °F - 51.8 °F 47% 30.09 in 10.0 mi West 12.7 mph 17.3 mph N/A   Clear
11:15 AM 75.2 °F - 51.8 °F 44% 30.08 in 10.0 mi West 11.5 mph - N/A   Clear
11:35 AM 75.2 °F - 51.8 °F 44% 30.07 in 10.0 mi WSW 9.2 mph - N/A   Clear
11:55 AM 78.8 °F - 51.8 °F 39% 30.07 in 10.0 mi West 8.1 mph - N/A   Clear
12:15 PM 78.8 °F - 53.6 °F 42% 30.06 in 10.0 mi West 13.8 mph 18.4 mph N/A   Clear
12:35 PM 78.8 °F - 53.6 °F 42% 30.05 in 10.0 mi West 13.8 mph 17.3 mph N/A   Clear
12:55 PM 80.6 °F 80.3 °F 53.6 °F 39% 30.03 in 10.0 mi West 10.4 mph 19.6 mph N/A   Clear
1:15 PM 80.6 °F 80.3 °F 53.6 °F 39% 30.03 in 10.0 mi West 15.0 mph - N/A   Clear
1:35 PM 80.6 °F 80.3 °F 53.6 °F 39% 30.02 in 10.0 mi WSW 12.7 mph 18.4 mph N/A   Clear
1:55 PM 80.6 °F 80.3 °F 53.6 °F 39% 30.01 in 10.0 mi West 11.5 mph - N/A   Clear
2:15 PM 80.6 °F 80.3 °F 53.6 °F 39% 30.01 in 10.0 mi West 10.4 mph - N/A   Clear
2:35 PM 80.6 °F 80.3 °F 53.6 °F 39% 30.00 in 10.0 mi WSW 6.9 mph 17.3 mph N/A   Clear
2:55 PM 80.6 °F - 51.8 °F 37% 30.00 in 10.0 mi SW 13.8 mph 19.6 mph N/A   Clear
3:15 PM 80.6 °F - 51.8 °F 37% 29.99 in 10.0 mi West 10.4 mph - N/A   Clear
3:35 PM 80.6 °F - 48.2 °F 32% 29.99 in 10.0 mi West 12.7 mph - N/A   Clear
3:55 PM 80.6 °F - 46.4 °F 30% 29.99 in 10.0 mi West 10.4 mph 19.6 mph N/A   Clear
4:15 PM 80.6 °F - 46.4 °F 30% 29.98 in 10.0 mi WSW 10.4 mph 16.1 mph N/A   Clear
4:35 PM 78.8 °F - 48.2 °F 34% 29.98 in 10.0 mi WSW 13.8 mph 21.9 mph N/A   Clear
4:55 PM 78.8 °F - 48.2 °F 34% 29.98 in 10.0 mi WSW 9.2 mph - N/A   Clear
5:15 PM 78.8 °F - 48.2 °F 34% 29.98 in 10.0 mi WSW 10.4 mph - N/A   Clear
5:35 PM 75.2 °F - 48.2 °F 38% 29.98 in 10.0 mi WSW 8.1 mph - N/A   Clear
5:55 PM 75.2 °F - 48.2 °F 38% 29.98 in 10.0 mi WSW 10.4 mph - N/A   Clear
6:15 PM 73.4 °F - 48.2 °F 41% 29.99 in 10.0 mi WSW 10.4 mph - N/A   Clear
6:35 PM 71.6 °F - 48.2 °F 43% 29.99 in 10.0 mi WSW 10.4 mph - N/A   Clear
6:55 PM 71.6 °F - 48.2 °F 43% 29.99 in 10.0 mi WSW 11.5 mph 17.3 mph N/A   Clear
7:15 PM 71.6 °F - 48.2 °F 43% 29.99 in 10.0 mi WSW 9.2 mph - N/A   Clear
7:35 PM 69.8 °F - 48.2 °F 46% 30.00 in 10.0 mi WSW 8.1 mph - N/A   Clear
7:55 PM 69.8 °F - 48.2 °F 46% 30.00 in 10.0 mi West 8.1 mph - N/A   Clear
8:15 PM 69.8 °F - 48.2 °F 46% 29.99 in 10.0 mi West 10.4 mph - N/A   Clear
8:35 PM 68.0 °F - 48.2 °F 49% 30.00 in 10.0 mi WSW 4.6 mph - N/A   Clear
8:55 PM 66.2 °F - 48.2 °F 52% 29.99 in 10.0 mi West 6.9 mph - N/A   Clear
9:15 PM 66.2 °F - 50.0 °F 56% 29.99 in 10.0 mi WSW 5.8 mph - N/A   Clear
9:35 PM 66.2 °F - 50.0 °F 56% 29.99 in 10.0 mi WSW 8.1 mph - N/A   Clear
9:55 PM 66.2 °F - 50.0 °F 56% 29.99 in 10.0 mi West 5.8 mph - N/A   Clear
10:15 PM 66.2 °F - 50.0 °F 56% 29.98 in 10.0 mi WSW 5.8 mph - N/A   Clear
10:35 PM 64.4 °F - 50.0 °F 59% 29.97 in 10.0 mi WSW 6.9 mph - N/A   Clear
10:55 PM 66.2 °F - 51.8 °F 60% 29.97 in 10.0 mi WSW 6.9 mph - N/A   Clear
11:15 PM 64.4 °F - 51.8 °F 64% 29.97 in 10.0 mi WSW 9.2 mph - N/A   Clear
11:35 PM 66.2 °F - 51.8 °F 60% 29.96 in 10.0 mi WSW 8.1 mph - N/A   Clear
11:55 PM 66.2 °F - 51.8 °F 60% 29.96 in 10.0 mi WSW 10.4 mph - N/A   Clear